DG3RAP-11 Weather Reports


time (UTC)temp
C
wind
direction
speed
KPH
gust
KPH
rain 1hr
cm
rain 24hr
cm
rain mn
cm
humidity
%
barometer
mb
20260505124503 24 279 6.4 9.7 0.00 0.00 0.00 31 1005.8
20260505123603 24 291 6.4 11.3 0.00 0.00 0.00 32 1005.8
20260505122703 23 54 3.2 12.9 0.00 0.00 0.00 31 1005.8
20260505121803 24 331 3.2 9.7 0.00 0.00 0.00 29 1006.0
20260505120903 25 314 3.2 6.4 0.00 0.00 0.00 27 1006.2
20260505120004 25 312 3.2 12.9 0.00 0.00 0.00 29 1006.0
20260505115403 25 315 6.4 12.9 0.00 0.00 0.00 31 1006.0
20260505114503 25 311 3.2 6.4 0.00 0.00 0.00 32 1006.3
20260505113603 24 297 4.8 17.7 0.00 0.00 0.00 33 1006.2
20260505112703 25 275 3.2 9.7 0.00 0.00 0.00 34 1006.4
20260505111803 24 334 1.6 12.9 0.00 0.00 0.00 34 1006.5
20260505110903 23 282 9.7 12.9 0.00 0.00 0.00 35 1006.7
20260505101803 21 271 3.2 11.3 0.00 0.00 0.00 43 1007.3
20260505100903 23 272 1.6 11.3 0.00 0.00 0.00 42 1007.3
20260505100003 23 284 3.2 6.4 0.00 0.00 0.00 43 1007.4
20260505095403 22 279 4.8 6.4 0.00 0.00 0.00 45 1007.5
20260505094503 22 269 3.2 11.3 0.00 0.00 0.00 45 1007.7
20260505093603 22 282 3.2 11.3 0.00 0.00 0.00 48 1007.7
20260505092703 21 274 4.8 11.3 0.00 0.00 0.00 49 1007.6
20260505091803 21 279 1.6 6.4 0.00 0.00 0.00 50 1007.7
20260505090903 21 298 3.2 9.7 0.00 0.00 0.00 50 1007.8
20260505090003 21 301 4.8 6.4 0.00 0.00 0.00 52 1008.1
20260505085403 21 66 1.6 6.4 0.00 0.00 0.00 53 1007.9
20260505084503 20 79 0.0 9.7 0.00 0.00 0.00 55 1007.9
20260505083603 20 85 4.8 9.7 0.00 0.00 0.00 56 1008.0
20260505082703 18 45 4.8 11.3 0.00 0.00 0.00 57 1007.9
20260505081803 20 48 3.2 6.4 0.00 0.00 0.00 56 1007.9
20260505080903 19 65 3.2 6.4 0.00 0.00 0.00 59 1008.3
20260505080003 20 41 1.6 6.4 0.00 0.00 0.00 57 1008.1
20260505075403 18 31 3.2 9.7 0.00 0.00 0.00 60 1008.0
20260505074503 17 55 4.8 9.7 0.00 0.00 0.00 66 1008.4
20260505073603 18 20 1.6 6.4 0.00 0.00 0.00 64 1008.4
20260505072703 19 345 1.6 6.4 0.00 0.00 0.00 60 1008.6
20260505071803 18 279 1.6 6.4 0.00 0.00 0.00 65 1008.5
20260505070903 17 277 3.2 6.4 0.00 0.00 0.00 65 1008.5
20260505070004 18 278 3.2 6.4 0.00 0.00 0.00 63 1008.5
20260505065403 17 285 4.8 6.4 0.00 0.00 0.00 65 1008.6
20260505064503 18 283 0.0 6.4 0.00 0.00 0.00 63 1008.6
20260505063603 16 316 3.2 6.4 0.00 0.00 0.00 68 1008.5
20260505062703 17 6 0.0 3.2 0.00 0.00 0.00 64 1008.6
20260505061803 16 10 1.6 3.2 0.00 0.00 0.00 68 1008.8
20260505060903 16 306 1.6 3.2 0.00 0.00 0.00 66 1008.6
20260505060003 15 301 3.2 6.4 0.00 0.00 0.00 72 1008.6
20260505055403 15 323 3.2 3.2 0.00 0.00 0.00 70 1008.9
20260505054503 15 312 1.6 6.4 0.00 0.00 0.00 71 1008.6
20260505053603 14 300 3.2 9.7 0.00 0.00 0.00 73 1008.7
20260505052703 15 347 3.2 3.2 0.00 0.00 0.00 71 1008.5
20260505051803 15 355 0.0 6.4 0.00 0.00 0.00 69 1008.5
20260505050903 14 354 1.6 3.2 0.00 0.00 0.00 71 1008.6
20260505040903 13 36 3.2 6.4 0.00 0.00 0.00 73 1008.8
20260505040004 13 33 3.2 6.4 0.00 0.00 0.00 74 1008.6
20260505035403 13 15 1.6 6.4 0.00 0.00 0.00 74 1008.6
20260505034503 13 334 3.2 3.2 0.00 0.00 0.00 75 1008.7
20260505033603 12 335 1.6 3.2 0.00 0.00 0.00 76 1008.7
20260505032703 12 337 1.6 3.2 0.00 0.00 0.00 76 1008.8
20260505031803 12 341 1.6 3.2 0.00 0.00 0.00 77 1008.8
20260505030903 13 11 1.6 3.2 0.00 0.00 0.00 76 1008.8
20260505030003 13 331 1.6 3.2 0.00 0.00 0.00 77 1008.9
20260505025403 13 337 0.0 3.2 0.00 0.00 0.00 76 1008.8
20260505024503 13 338 1.6 3.2 0.00 0.00 0.00 75 1008.9
20260505023603 13 10 3.2 3.2 0.00 0.00 0.00 72 1008.9
20260505022703 13 328 0.0 3.2 0.00 0.00 0.00 70 1009.1
20260505021803 14 326 1.6 3.2 0.00 0.00 0.00 68 1008.9
20260505020903 15 351 3.2 3.2 0.00 0.00 0.00 66 1009.0
20260505020004 15 2 1.6 3.2 0.00 0.00 0.00 65 1009.2
20260505015403 15 13 1.6 6.4 0.00 0.00 0.00 64 1009.0
20260505014503 15 24 3.2 6.4 0.00 0.00 0.00 63 1009.0
20260505013603 15 19 1.6 9.7 0.00 0.00 0.00 63 1009.1
20260505012703 15 37 1.6 6.4 0.00 0.00 0.00 64 1009.1
20260505011803 15 31 1.6 6.4 0.00 0.00 0.00 65 1009.2
20260505010903 15 2 1.6 6.4 0.00 0.00 0.00 65 1009.0
20260505010003 15 318 1.6 6.4 0.00 0.00 0.00 67 1009.2
20260505005403 15 313 1.6 6.4 0.00 0.00 0.00 67 1009.3
20260505004503 15 296 3.2 6.4 0.00 0.00 0.00 66 1009.6
20260505003603 15 311 1.6 6.4 0.00 0.00 0.00 66 1009.9
20260505002703 15 301 3.2 6.4 0.00 0.00 0.00 65 1009.8
20260505001803 16 295 3.2 6.4 0.00 0.00 0.00 65 1009.8
20260505000903 16 291 3.2 6.4 0.00 0.00 0.00 65 1009.9
20260505000003 16 282 6.4 11.3 0.00 0.00 0.00 64 1010.0
20260504235403 16 276 3.2 11.3 0.00 0.00 0.00 63 1010.2
20260504234503 17 290 8.0 11.3 0.00 0.00 0.00 59 1010.5
20260504233603 17 289 6.4 12.9 0.00 0.00 0.00 59 1010.6
20260504232703 17 277 3.2 6.4 0.00 0.00 0.00 58 1010.8
20260504231803 17 290 4.8 14.5 0.00 0.00 0.00 56 1010.9
20260504230903 17 293 6.4 12.9 0.00 0.00 0.00 57 1011.0
20260504230003 17 279 6.4 11.3 0.00 0.00 0.00 58 1010.9
20260504225403 16 274 4.8 6.4 0.00 0.00 0.00 59 1011.1
20260504224503 16 277 3.2 6.4 0.00 0.00 0.00 60 1011.0
20260504223603 17 301 3.2 6.4 0.00 0.00 0.00 59 1010.6
20260504222703 17 302 3.2 6.4 0.00 0.00 0.00 56 1010.5
20260504221803 17 294 3.2 9.7 0.00 0.00 0.00 55 1010.6
20260504220903 17 7 1.6 9.7 0.00 0.00 0.00 55 1010.1
20260504220003 17 3 3.2 9.7 0.00 0.00 0.00 54 1010.5
20260504215403 17 342 3.2 6.4 0.00 0.00 0.00 54 1010.5
20260504214503 17 347 3.2 6.4 0.00 0.00 0.00 53 1010.6
20260504213603 17 28 3.2 6.4 0.00 0.00 0.00 53 1010.4
20260504212703 17 19 1.6 6.4 0.00 0.00 0.00 54 1010.7
20260504211803 17 25 1.6 6.4 0.00 0.00 0.00 52 1010.7
20260504210903 18 31 3.2 6.4 0.00 0.00 0.00 50 1010.8
20260504210004 18 32 3.2 6.4 0.00 0.00 0.00 49 1010.7
20260504205403 18 37 3.2 9.7 0.00 0.00 0.00 49 1010.6
20260504204503 18 35 3.2 9.7 0.00 0.00 0.00 49 1010.7
20260504203603 18 40 3.2 6.4 0.00 0.00 0.00 50 1010.7
20260504202703 18 36 3.2 6.4 0.00 0.00 0.00 50 1010.8
20260504201803 18 32 1.6 9.7 0.00 0.00 0.00 49 1010.7
20260504200903 18 23 1.6 6.4 0.00 0.00 0.00 50 1010.8
20260504200003 18 9 1.6 9.7 0.00 0.00 0.00 49 1010.8
20260504195403 18 349 1.6 6.4 0.00 0.00 0.00 49 1010.8
20260504194503 19 324 1.6 6.4 0.00 0.00 0.00 49 1010.8
20260504193603 19 310 3.2 6.4 0.00 0.00 0.00 48 1010.9
20260504192703 19 327 3.2 6.4 0.00 0.00 0.00 48 1010.9
20260504191803 19 324 3.2 6.4 0.00 0.00 0.00 47 1010.7
20260504190903 19 297 1.6 6.4 0.00 0.00 0.00 47 1010.6
20260504190003 19 349 1.6 3.2 0.00 0.00 0.00 45 1010.6
20260504185403 20 304 0.0 3.2 0.00 0.00 0.00 44 1010.6
20260504184503 20 329 3.2 6.4 0.00 0.00 0.00 44 1010.4
20260504183603 20 47 1.6 6.4 0.00 0.00 0.00 41 1010.5
20260504182703 20 45 1.6 3.2 0.00 0.00 0.00 41 1010.6
20260504181803 21 29 1.6 6.4 0.00 0.00 0.00 41 1010.5
20260504180903 21 52 1.6 6.4 0.00 0.00 0.00 40 1010.5
20260504180003 21 36 1.6 6.4 0.00 0.00 0.00 40 1010.5
20260504175403 21 35 3.2 6.4 0.00 0.00 0.00 39 1010.5
20260504174503 21 360 3.2 6.4 0.00 0.00 0.00 39 1010.5
20260504173603 21 297 3.2 3.2 0.00 0.00 0.00 39 1010.5
20260504172703 22 304 0.0 3.2 0.00 0.00 0.00 39 1010.7
20260504171803 22 298 0.0 3.2 0.00 0.00 0.00 39 1010.7
20260504170903 22 294 0.0 6.4 0.00 0.00 0.00 38 1011.0
20260504150903 24 294 6.4 9.7 0.00 0.00 0.00 34 1010.9